Miami, FL

4:34 PM EST on November 22, 2019 (GMT -0500)
Miami International

Weather History for KMIA - October, 2019

Change the Weather History Date:

Wednesday, October 16, 2019

  Actual Average Record
Temperature  
Mean Temperature 85 °F 80 °F  
Max Temperature 92 °F 86 °F 94 °F (2009)
Min Temperature 77 °F 74 °F 60 °F (1955)
Degree Days  
Heating Degree Days 0 0  
Month to date heating degree days 0 0  
Since 1 July heating degree days 0 0  
Cooling Degree Days 20 15  
Month to date cooling degree days 288 257  
Year to date cooling degree days 4379 3869  
Growing Degree Days 34 (Base 50)    
Moisture  
Dew Point 72 °F    
Average Humidity 66    
Maximum Humidity 82    
Minimum Humidity 49    
Precipitation  
Precipitation 0.00 in 0.18 in 3.75 in (1932)
Month to date precipitation 3.12 3.97  
Year to date precipitation 58.29 54.23  
Sea Level Pressure  
Sea Level Pressure 29.94 in    
Wind  
Wind Speed 7 mph (SSW)    
Max Wind Speed 16 mph    
Max Gust Speed 21 mph    
Visibility 10 miles    
Events      
T = Trace of Precipitation, MM = Missing Value Source: NWS Daily Summary

Daily Weather History Graph

Daily Weather History Graph

Search for Another Location

Airport or City:

Astronomy

Oct. 16, 2019 Rise Set
Actual Time 7:20 AM EDT 6:52 PM EDT
Civil Twilight 6:57 AM EDT 7:15 PM EDT
Nautical Twilight 6:30 AM EDT 7:42 PM EDT
Astronomical Twilight 6:03 AM EDT 8:09 PM EDT
Moon 8:58 PM EDT (10/16) 9:38 AM EDT (10/16)
Length of Visible Light 12h 18m
Length of Day
11h 32m
Waning Gibbous, 93% of the Moon is Illuminated
Oct 16
Waning Gibbous
Oct 21
Last Quarter
Oct 27
New
Nov 4
First Quarter
Nov 12
Full

Hourly Weather History & Observations

Time (EDT) Temp. Heat Index Dew Point Humidity Pressure Visibility Wind Dir Wind Speed Gust Speed Precip Events Conditions
12:53 AM 79.0 °F - 71.1 °F 77% 29.98 in 10.0 mi ESE 4.6 mph - N/A   Scattered Clouds
1:53 AM 78.1 °F - 71.1 °F 79% 29.98 in 10.0 mi ESE 3.5 mph - N/A   Scattered Clouds
2:53 AM 78.1 °F - 71.1 °F 79% 29.98 in 10.0 mi Calm Calm - N/A   Scattered Clouds
3:53 AM 77.0 °F - 71.1 °F 82% 29.96 in 10.0 mi SE 3.5 mph - N/A   Scattered Clouds
4:53 AM 78.1 °F - 71.1 °F 79% 29.96 in 10.0 mi Calm Calm - N/A   Partly Cloudy
5:53 AM 78.1 °F - 71.1 °F 79% 29.95 in 10.0 mi Calm Calm - N/A   Scattered Clouds
6:53 AM 78.1 °F - 72.0 °F 81% 29.96 in 10.0 mi Calm Calm - N/A   Scattered Clouds
7:53 AM 79.0 °F - 73.0 °F 82% 29.97 in 10.0 mi South 4.6 mph - N/A   Scattered Clouds
8:53 AM 82.9 °F 89.4 °F 73.9 °F 74% 29.97 in 10.0 mi SSE 5.8 mph - N/A   Partly Cloudy
9:53 AM 84.9 °F 91.4 °F 73.0 °F 67% 29.99 in 10.0 mi Variable 4.6 mph - N/A   Scattered Clouds
10:31 AM 86.0 °F 93.0 °F 73.0 °F 65% 29.98 in 10.0 mi SSE 6.9 mph - N/A   Mostly Cloudy
10:53 AM 84.9 °F 91.4 °F 73.0 °F 67% 29.99 in 10.0 mi South 8.1 mph - N/A   Mostly Cloudy
11:53 AM 88.0 °F 96.5 °F 73.9 °F 63% 29.97 in 10.0 mi South 5.8 mph - N/A   Mostly Cloudy
12:53 PM 86.0 °F 93.0 °F 73.0 °F 65% 29.95 in 10.0 mi SSE 12.7 mph - N/A   Mostly Cloudy
1:00 PM 86.0 °F 93.8 °F 73.9 °F 67% 29.94 in 10.0 mi SSE 10.4 mph - N/A   Mostly Cloudy
1:53 PM 88.0 °F 96.5 °F 73.9 °F 63% 29.92 in 10.0 mi SSE 6.9 mph - N/A   Mostly Cloudy
2:53 PM 91.0 °F 96.6 °F 70.0 °F 50% 29.90 in 10.0 mi WSW 9.2 mph - N/A   Scattered Clouds
3:53 PM 91.0 °F 96.6 °F 70.0 °F 50% 29.88 in 10.0 mi WSW 12.7 mph 18.4 mph N/A   Scattered Clouds
4:53 PM 90.0 °F 94.5 °F 69.1 °F 50% 29.88 in 10.0 mi WSW 13.8 mph - N/A   Scattered Clouds
5:53 PM 89.1 °F 93.7 °F 69.1 °F 52% 29.88 in 10.0 mi WSW 15.0 mph - N/A   Scattered Clouds
6:53 PM 87.1 °F 91.3 °F 69.1 °F 55% 29.89 in 10.0 mi West 10.4 mph - N/A   Partly Cloudy
7:53 PM 84.9 °F 90.1 °F 71.1 °F 63% 29.90 in 10.0 mi West 11.5 mph - N/A   Partly Cloudy
8:53 PM 84.0 °F 90.2 °F 73.0 °F 69% 29.92 in 10.0 mi West 8.1 mph - N/A   Clear
9:53 PM 82.9 °F 89.4 °F 73.9 °F 74% 29.93 in 10.0 mi WSW 8.1 mph - N/A   Partly Cloudy
10:53 PM 82.0 °F 87.4 °F 73.0 °F 74% 29.94 in 10.0 mi West 6.9 mph - N/A   Clear
11:53 PM 81.0 °F 86.2 °F 73.9 °F 79% 29.94 in 10.0 mi West 6.9 mph - N/A   Clear